Weather in Kardailovo

Russia / Orenburg Oblast     51°32′12″N   53°54′24″E
temp.,
°C
wind,
m/s
gust,
m/s
humid.,
%
clouds,
%
prec.,
mm/h
press.,
hPa
HPBL,
m
16 october, sat
sat1623:00+12ssw3541100 0.1 102492
02:00+11w3657100 0.0 1024202
05:00+9nw2591100 4.6 1025270
08:00+8wsw118362 0.3 102514
11:00+11wnw115221 0.3 1026462
14:00+13wsw22415 0.0 10251012
17:00+14wsw224040 0.0 10241036
20:00+11se115298 0.0 102411
17 october, sun
sun1723:00+12se2365100 0.0 102466
02:00+9sse33655 0.0 102331
05:00+8sse336017 0.0 102226
08:00+7sse335670 0.0 102230
11:00+13s3536100 0.0 1022294
14:00+16s4629100 0.0 1020704
17:00+16s3630100 0.0 1020269
20:00+13sse3338100 0.0 102037
18 october, mon
mon1823:00+12s4742100 0.0 1019131
02:00+11s4842100 0.0 1019152
05:00+11sse4941100 0.0 1018174
08:00+9s4946100 0.0 1017165
11:00+13s61035100 0.0 1017434
14:00+15s5934100 0.0 1016576
17:00+16s5827100 0.0 1015751
20:00+12s3734100 0.0 1015120
19 october, tue
tue1923:00+11s4736100 0.0 1015114
02:00+10s4638100 0.0 101499
05:00+9s354186 0.0 101366
08:00+8s3543100 0.0 101365
11:00+13s4632100 0.0 1012338
14:00+16ssw572599 0.0 1011876
17:00+16sw572789 0.0 1010936
20:00+13ssw373886 0.0 1009247
20 october, wed
wed2023:00+11wsw485182 0.0 1009240
02:00+9w3662100 0.0 1009178
05:00+7w3570100 0.0 100992
08:00+5w357798 0.0 101099
11:00+9wnw455977 0.0 1011545
14:00+10wnw5656100 0.1 10111419
17:00+5nnw7980100 0.1 1013740
20:00+5nnw3971100 0.0 1015406